Погода в Поселке совхоза имени Ленина

Россия / Московская область     55°35′04″N   37°44′07″E
темп.,
°C
ветер,
м/с
пор.,
м/с
влажн.,
%
обл.,
%
осадки,
мм/ч
давл.,
гПа
погр.,
м
8 мая, сб
сб800:00+6ююв41171100 0.0 1012180
03:00+8ююв51368100 0.0 1011332
06:00+7ююв61492100 2.1 1010700
09:00+7юв71594100 9.1 1009834
12:00+8юв71395100 3.2 1006845
15:00+8ююв61395100 9.3 1004756
18:00+9ю51193100 7.4 1002538
21:00+8зсз3697100 9.5 1001331
9 мая, вс
вс900:00+7сз61194100 1.6 1001700
03:00+4сз81497100 4.4 1004997
06:00+3сз81591100 2.3 1008786
09:00+4сз71285100 2.3 10121100
12:00+7сз81072100 0.1 10151263
15:00+11сз6104899 0.1 10162326
18:00+10сз595358 0.1 1019877
21:00+6зсз34685 0.1 102250
10 мая, пн
пн1000:00+4зсз46735 0.0 102488
03:00+3сз34700 0.0 102741
06:00+4ссз24721 0.0 102999
09:00+9ссз23512 0.0 1030481
12:00+13ссз22384 0.0 10301274
15:00+14ссз23352 0.0 10291597
18:00+14юв11475 0.0 1029353
21:00+9ю11535 0.0 103010
11 мая, вт
вт1100:00+7вюв22601 0.0 103014
03:00+6в11705 0.0 103110
06:00+7всв237433 0.0 103268
09:00+12в355913 0.0 1032469
12:00+16в46471 0.0 10311107
15:00+17в56460 0.0 10291254
18:00+17в36600 0.0 1028319
21:00+11всв46775 0.0 102973
12 мая, ср
ср1200:00+8в37792 0.0 1028107
03:00+7всв48840 0.0 1028125
06:00+8всв410830 0.0 1028228
09:00+14вюв577282 0.0 1027527
12:00+15вюв377616 0.0 1027568
15:00+19вюв696383 0.0 10251072
18:00+19вюв476319 0.0 1025402
21:00+15в387568 0.0 1025134